Location: Paderno d�Adda
(45.6667°N, 9.4333°E)
Time: 13:52:47
(UTC+00:00)

SJ 16-02 - Pass Details

Date: 19 September 2020
Orbit: 606 x 616 km, 75.0° (Epoch: 30 October)

Event Time Altitude Azimuth Distance (km) Brightness Sun altitude
Rises 18:12:26 0° 222° (SW) 2,854 5.2 -9.1°
Reaches altitude 10° 18:14:50 10° 232° (SW) 1,954 4.5 -9.5°
Maximum altitude 18:18:47 33° 297° (WNW) 1,020 3.3 -10.1°
Drops below altitude 10° 18:22:47 10° 3° (N) 1,966 4.1 -10.8°
Sets 18:25:12 0° 13° (NNE) 2,874 4.8 -11.2°
